GFSMA_prec_cthk_132.txt.gz
RH
32 31 34 32 33 34 34 36 38 38 38 41 45 43 46 45 53 51 63 53 51 49 48 51 53 53 56 67 75 87 88 90 91 68 49 42 29 25 26 27 20 16 13
33 36 35 33 33 31 32 37 42 45 47 45 45 45 46 45 46 53 43 49 55 52 48 46 49 54 56 63 78 82 82 85 81 58 54 44 29 27 26 27 20 18 14
33 36 35 35 33 33 31 36 40 44 45 48 43 43 45 50 52 49 47 46 44 48 48 49 45 46 53 63 65 70 76 85 80 62 52 39 33 26 27 25 22 16 17
30 40 39 33 35 36 37 36 37 37 38 41 41 41 42 48 52 51 52 53 49 47 47 46 45 44 46 52 61 65 73 83 85 76 47 39 32 26 27 29 23 17 20
33 38 41 39 39 40 40 39 37 38 38 40 40 41 41 41 45 44 48 49 49 48 47 52 53 50 51 53 55 57 65 69 76 78 78 56 39 27 26 30 25 20 20
33 35 40 41 43 39 40 38 41 42 41 41 45 42 42 43 40 41 43 44 43 44 46 43 47 50 52 55 56 59 60 59 67 68 76 66 46 29 24 28 26 23 21
34 35 38 38 43 41 40 41 41 42 43 43 44 48 45 44 42 41 42 41 42 43 44 43 42 43 46 52 51 53 58 60 58 64 68 77 66 38 26 22 26 26 24
38 35 37 38 38 38 43 43 44 45 48 49 48 49 48 45 43 42 42 43 42 43 45 46 47 43 44 46 51 50 56 60 64 63 64 72 63 50 34 28 27 26 27
36 39 36 40 40 39 40 46 48 48 50 55 57 54 53 48 44 43 46 49 50 45 45 46 46 50 48 44 47 54 56 58 65 69 70 69 70 67 47 38 35 34 32
40 38 37 39 44 43 43 46 50 52 55 56 63 60 57 57 56 53 49 53 59 50 47 50 47 48 49 47 47 52 58 59 64 68 76 77 77 70 68 49 42 41 38
46 41 43 45 53 50 49 48 56 58 59 63 64 66 66 59 57 59 55 55 58 56 52 53 52 50 46 49 51 51 56 64 68 66 69 72 82 78 69 58 52 47 39
60 58 57 54 64 68 66 65 60 66 68 71 66 69 66 65 70 69 68 64 68 63 57 55 57 54 51 49 51 51 55 65 67 69 71 81 88 83 77 70 56 53 41
84 82 84 76 80 75 81 72 71 70 71 71 70 63 71 64 64 80 75 74 74 76 70 62 61 60 59 57 53 52 54 62 64 65 67 75 88 95 90 81 58 61 40
85 56 98 77 75 74 83 76 70 68 68 70 72 70 72 72 69 75 75 75 78 82 76 67 69 72 69 61 58 54 53 61 61 63 69 74 86 96 98 89 80 64 49
91 90 96 83 85 80 67 67 67 63 72 71 74 76 80 79 77 77 79 78 82 91 82 79 75 79 78 67 65 56 54 58 66 68 81 90 91 94 92 90 80 68 52
97 98 97 92 85 77 73 68 67 66 73 72 73 72 82 94 89 89 87 84 81 78 80 75 76 84 84 70 69 68 53 54 64 75 83 88 95 96 94 89 81 66 61
91 90 86 82 86 83 75 70 69 72 72 74 76 76 81 87 90 86 89 89 90 89 86 81 82 81 82 75 71 74 62 57 53 63 77 88 96 99 93 94 92 75 65
96 97 85 91 87 85 82 78 78 78 74 75 79 80 80 85 86 90 93 95 99 97 93 83 81 85 88 83 79 74 76 61 56 57 65 83 94 98 94 97 97 96 86
88 86 78 92 89 80 75 75 76 76 79 81 82 84 88 87 87 90 93 88 88 94 88 89 79 87 89 88 85 79 78 65 61 57 62 72 89 98 97 97 98 97 97
85 87 84 81 83 84 80 74 75 77 82 80 85 89 92 90 88 84 91 88 90 90 91 88 85 83 87 86 89 84 79 72 63 61 61 66 82 93 99 99 98 98 98
84 77 79 82 83 82 80 85 78 82 87 89 87 89 89 91 89 85 81 84 87 88 92 98 97 90 83 83 87 87 84 79 69 63 59 63 76 90 95 97 96 96 96
77 83 83 82 78 91 91 89 94 91 89 89 94 95 97 96 90 89 86 82 83 83 86 93 92 82 82 81 87 89 90 82 76 65 65 64 77 88 95 94 93 95 97
66 66 63 65 64 67 73 80 87 87 89 95 91 93 97 93 95 95 92 91 86 88 85 81 78 80 83 86 88 97 99 87 79 76 72 69 73 83 90 96 96 96 97
41 41 41 42 45 48 50 57 63 64 61 71 75 80 87 86 86 95 87 94 92 92 94 83 92 80 98 96 95 94 98 96 88 84 80 72 73 72 79 86 95 97 98
23 23 24 24 25 27 28 30 31 31 35 42 50 53 54 58 76 79 77 86 91 88 86 88 87 90 99 96 97 96 97 98 92 91 86 79 72 68 71 79 85 88 95
13 13 13 13 13 14 14 14 15 16 18 22 28 31 37 48 51 53 61 78 84 90 91 93 91 96 99 99 99 99 97 96 96 93 88 89 80 71 75 75 80 73 80

GFSMA_prec_cthk_138.txt.gz
RH
34 33 31 29 28 28 30 32 34 37 34 37 42 46 44 47 58 58 53 48 47 45 42 42 42 40 43 44 51 58 77 86 94 94 93 93 76 51 40 31 29 23 26
39 34 33 31 29 28 31 32 31 34 35 35 41 47 51 53 54 46 45 48 46 42 44 48 48 54 42 42 45 53 63 66 82 87 88 87 80 63 43 29 26 25 25
48 40 36 33 30 29 32 34 34 34 34 35 37 43 48 45 48 45 47 48 48 45 43 44 46 48 49 49 47 52 53 60 63 65 75 83 80 73 47 31 28 25 24
71 50 36 32 32 32 36 36 34 34 32 34 37 38 44 48 45 45 45 46 46 44 46 46 45 43 44 45 50 51 55 57 57 67 70 73 71 70 52 37 27 24 24
89 72 43 37 35 34 36 38 35 34 33 34 36 37 42 50 42 45 43 44 46 43 42 39 45 47 46 47 46 49 53 58 56 60 71 68 67 65 69 58 44 26 21
96 91 66 44 40 38 36 39 38 37 36 36 37 38 41 46 49 45 46 46 44 40 40 37 43 39 42 43 45 45 47 50 54 57 62 65 66 68 72 68 51 34 27
81 96 90 64 48 42 37 39 41 39 41 39 42 43 45 46 48 47 49 45 44 44 44 41 40 43 43 44 44 45 46 45 49 51 57 63 66 64 66 72 67 46 31
78 76 86 87 61 48 46 43 43 44 45 44 42 44 45 46 45 46 49 49 46 47 48 47 45 45 46 48 44 43 42 45 47 50 54 65 68 68 67 67 65 57 51
81 75 95 92 73 51 48 43 44 44 47 48 46 43 45 45 44 47 49 51 51 49 51 53 53 50 49 48 50 46 44 42 44 45 48 60 64 70 70 71 69 66 59
58 81 95 87 91 81 54 42 42 42 48 47 50 46 41 37 44 48 50 52 54 53 53 57 61 59 60 60 61 57 51 47 44 44 46 52 63 69 69 74 74 64 63
39 70 80 85 89 88 71 60 50 43 46 48 47 47 45 43 45 47 48 51 54 60 60 62 66 69 72 67 68 70 60 56 52 46 47 49 53 64 67 68 70 70 72
25 49 68 77 99 94 90 66 62 53 47 50 51 55 50 49 48 50 51 56 60 63 67 65 62 70 79 74 74 76 76 68 62 55 50 51 49 55 63 69 69 70 70
30 39 60 77 80 85 97 88 73 66 62 57 51 53 56 56 56 55 61 64 65 65 69 71 70 75 78 80 80 78 75 73 68 65 59 52 50 54 59 64 65 68 70
43 37 57 83 83 93 81 93 90 77 82 71 61 56 61 64 69 70 69 70 68 66 67 71 79 80 80 80 82 84 79 76 69 72 67 56 52 51 58 60 70 74 78
59 40 50 83 90 86 88 90 95 93 86 78 74 61 73 82 81 77 79 76 72 70 69 72 82 87 88 85 89 87 88 81 76 81 77 67 60 53 55 64 68 72 79
58 56 50 76 86 76 80 88 91 94 92 90 83 93 97 86 80 76 74 75 80 86 88 87 90 87 87 89 87 88 91 90 87 85 83 73 67 63 56 53 61 67 73
73 54 62 79 83 84 82 85 98 98 89 80 88 96 99 90 86 83 84 85 88 85 85 81 84 80 89 91 92 94 93 91 87 88 84 75 70 69 65 55 54 59 64
62 58 91 89 97 97 98 93 94 97 96 94 97 98 98 90 85 88 89 78 79 79 75 75 79 98 96 99 80 87 92 93 94 88 89 83 82 76 72 66 56 57 61
71 66 91 93 97 97 90 87 95 98 97 98 98 97 98 94 92 90 85 79 76 78 75 74 74 74 85 88 80 78 88 92 94 93 92 91 87 87 80 75 66 59 58
70 94 97 96 94 88 84 96 98 98 98 98 97 96 95 92 90 89 79 75 72 72 72 73 67 75 80 82 85 91 93 84 90 94 93 95 89 88 88 81 73 66 59
83 73 75 80 81 81 83 94 94 94 94 91 90 88 87 84 79 74 71 69 70 71 70 69 69 67 72 80 88 91 91 89 88 88 90 94 91 89 84 86 81 73 67
59 57 55 50 56 65 63 67 67 65 69 69 65 68 69 70 70 70 73 68 68 71 72 78 79 69 75 75 85 91 93 96 99 89 88 87 89 87 80 80 85 83 75
41 40 38 38 41 40 41 40 37 38 38 37 39 37 36 36 38 40 43 51 56 62 68 74 79 81 81 83 89 93 95 96 93 94 98 92 89 79 78 79 83 86 80
27 25 24 24 24 24 25 24 23 24 24 23 23 24 24 23 23 25 27 27 28 33 40 46 51 62 69 78 80 86 90 94 91 97 98 92 88 84 92 82 85 89 86
13 13 16 16 15 15 13 12 11 10 10 10 11 11 11 11 12 13 14 14 16 17 22 26 30 36 44 55 63 70 84 91 85 91 97 95 88 84 79 84 92 89 88
8 7 7 7 7 7 7 7 6 6 7 7 7 8 9 9 10 9 11 11 11 13 15 16 19 22 26 30 37 45 61 73 80 86 91 91 90 88 84 86 87 93 92

GFSMA_prec_cthk_141.txt.gz
RH
60 53 45 40 36 33 31 31 32 35 39 39 38 36 38 42 47 52 56 58 50 51 58 49 44 44 43 43 46 51 64 71 84 93 92 92 89 81 62 43 38 32 29
71 70 55 46 40 36 33 31 31 33 38 40 38 38 38 43 47 52 52 52 46 44 45 53 53 53 56 48 42 44 54 61 70 80 87 88 88 82 76 57 37 29 29
85 81 69 56 44 39 36 35 33 35 36 39 38 38 39 43 44 48 46 44 47 46 44 43 43 52 57 60 54 48 49 54 58 63 66 68 71 79 78 73 45 30 24
87 84 80 76 56 50 40 38 35 38 37 36 37 38 39 40 41 42 43 42 48 43 44 37 38 40 47 51 56 50 49 52 57 56 59 63 64 64 66 70 56 38 25
74 86 84 86 81 59 48 41 39 40 41 38 37 38 42 40 39 38 40 39 46 47 47 44 41 38 41 44 49 55 54 51 54 53 53 63 67 63 59 58 53 46 31
50 78 88 90 86 78 57 45 42 44 43 41 41 38 41 41 40 39 38 38 41 45 50 50 46 36 38 41 45 47 50 57 53 54 57 56 58 63 61 59 62 66 53
26 48 81 84 86 79 75 55 47 51 51 46 46 46 44 45 42 42 43 42 42 41 46 47 48 50 40 40 42 45 48 48 54 52 53 56 60 60 63 64 67 68 63
18 26 51 75 91 93 84 77 55 54 56 52 47 48 49 48 44 43 44 44 44 44 46 48 49 50 50 45 44 44 47 51 55 53 53 54 63 67 70 67 64 68 71
13 19 27 51 76 97 94 89 68 61 55 57 52 49 50 48 44 42 44 44 47 47 48 50 51 50 51 54 53 50 50 53 52 52 52 59 55 57 62 65 66 66 67
19 14 18 27 56 84 96 92 85 73 63 60 57 53 51 48 49 42 42 44 49 48 47 51 52 52 56 61 62 58 57 59 61 54 50 54 57 55 60 65 69 67 70
30 21 15 17 32 76 83 77 79 82 68 58 51 56 56 53 50 46 39 43 50 52 53 53 54 58 60 62 64 69 68 65 70 69 59 55 53 55 56 60 65 67 66
35 35 21 15 21 45 89 90 88 90 85 62 55 57 56 57 52 51 47 47 51 52 55 59 56 59 64 63 64 70 74 76 73 75 74 67 63 55 55 58 59 65 69
45 48 37 24 28 33 59 93 96 98 97 90 76 59 60 60 61 59 61 58 58 56 57 59 62 65 69 68 71 76 80 78 77 78 81 78 72 64 61 58 59 63 71
53 54 50 35 27 32 43 74 96 95 87 99 96 79 70 69 68 70 70 68 68 65 65 63 66 66 69 71 77 83 85 86 86 88 85 83 85 74 70 61 60 70 67
63 69 57 43 35 28 33 63 94 91 93 87 99 92 87 82 86 83 84 78 75 75 71 69 68 67 72 77 81 86 88 91 86 90 91 88 85 83 77 71 63 66 74
63 60 47 53 51 49 31 69 78 91 84 87 95 92 98 93 94 89 87 82 82 88 77 73 72 73 86 86 89 86 82 89 89 89 87 87 85 85 82 79 73 65 64
75 70 61 59 63 53 45 77 99 94 91 84 94 97 94 94 93 94 87 85 95 94 86 80 78 82 82 86 83 79 82 84 91 88 89 88 87 88 88 84 73 70 67
84 80 79 73 79 79 56 85 94 99 96 82 85 88 90 95 96 92 97 94 99 92 92 89 85 85 79 79 77 73 75 84 88 84 83 89 90 90 91 87 78 74 71
85 79 77 94 95 85 65 62 90 91 94 97 93 93 96 98 98 94 97 99 97 93 95 94 89 82 73 70 69 68 73 74 76 77 85 86 90 92 92 91 83 80 78
91 89 94 98 99 93 77 71 77 91 97 97 98 97 97 97 98 94 98 96 95 92 88 86 79 74 74 72 68 67 59 60 59 69 83 88 91 92 92 90 89 86 84
87 88 88 88 87 83 78 79 83 94 94 95 94 94 94 94 94 93 90 87 90 84 82 79 77 75 70 70 69 66 64 61 61 77 73 88 89 90 90 95 89 85 82
40 52 58 62 61 57 52 54 58 58 59 58 59 60 60 61 61 60 60 62 61 63 67 66 66 70 70 72 73 70 69 65 64 76 81 86 89 94 91 94 94 93 87
35 39 36 34 35 32 31 32 34 40 38 36 35 35 34 33 33 30 28 31 32 32 32 33 37 41 45 50 57 61 70 74 71 79 78 69 89 88 95 93 93 94 93
23 28 24 22 20 19 19 19 19 19 20 21 22 21 20 19 18 18 20 21 21 20 20 22 23 26 27 27 29 36 46 52 61 73 81 73 88 85 92 96 95 95 95
11 9 10 11 13 14 10 9 10 10 10 10 10 10 9 9 9 9 10 10 10 11 13 15 17 18 20 21 22 21 21 24 30 39 57 69 81 87 87 83 87 95 97
10 9 9 8 8 8 8 7 6 6 6 6 6 6 6 7 8 8 7 7 8 10 10 10 11 13 14 16 17 18 20 21 25 25 29 40 55 70 76 80 84 83 93

GFSMA_prec_cthk_144.txt.gz
RH
71 75 72 68 59 51 42 38 35 34 33 35 39 39 36 37 42 46 49 55 65 49 51 52 45 43 41 42 45 49 54 64 71 82 88 91 91 87 83 71 55 40 32
66 77 82 76 71 62 54 45 40 37 35 34 38 40 38 38 42 46 54 57 59 52 47 55 54 50 48 48 48 45 51 60 63 75 81 86 91 91 86 80 67 53 41
42 60 76 85 82 72 73 56 44 41 39 38 37 40 40 38 40 45 51 54 55 53 45 44 47 50 57 56 52 47 42 48 55 59 72 77 73 73 70 72 77 66 46
22 34 54 75 85 86 78 70 51 45 40 39 38 38 40 39 39 43 48 50 51 51 47 46 42 40 46 53 57 55 49 44 48 56 59 63 63 62 59 57 64 72 50
12 17 32 53 76 93 93 82 65 51 45 40 39 39 39 40 40 43 43 46 48 50 46 46 46 41 43 44 50 54 56 53 48 52 53 50 56 64 64 57 52 55 53
12 11 14 30 54 85 92 89 83 68 48 46 42 44 41 40 40 42 42 45 44 47 45 47 48 45 46 42 45 49 51 52 58 53 55 55 57 57 59 61 62 62 57
15 15 13 14 28 56 84 93 86 87 65 49 50 51 47 42 42 40 45 46 44 47 49 50 44 43 41 43 44 45 50 53 53 54 51 52 52 53 62 62 61 62 63
20 19 17 14 15 27 54 74 90 96 88 58 56 55 55 47 43 40 41 45 43 44 48 48 45 48 47 47 45 45 47 51 52 59 61 57 56 60 60 63 65 66 65
26 24 22 19 15 15 28 55 76 99 98 81 59 58 63 49 47 41 39 42 44 43 46 49 48 51 53 54 51 50 51 54 53 56 58 59 57 58 58 55 59 63 66
29 27 27 23 18 13 15 33 59 79 88 88 84 68 65 54 51 45 44 43 45 45 45 49 49 50 52 54 56 58 59 60 65 63 64 64 58 56 57 57 57 61 63
34 31 29 31 24 16 12 21 40 66 76 83 89 68 69 70 55 46 44 46 45 42 45 51 50 50 52 54 54 61 64 64 70 72 71 73 76 63 60 57 57 60 62
42 38 35 33 30 24 16 14 28 44 68 74 83 83 73 73 66 51 50 47 46 42 46 53 55 54 55 56 57 62 63 64 68 74 79 80 79 76 72 65 61 58 62
58 53 47 47 38 31 26 19 17 30 48 75 92 95 88 83 74 62 61 57 54 50 50 54 56 55 57 61 60 63 68 68 71 79 84 86 85 84 79 75 65 63 63
67 64 63 61 49 47 42 32 29 30 45 54 89 93 91 95 88 81 69 72 68 63 60 59 60 60 60 67 68 68 66 72 79 84 86 85 85 89 89 87 79 69 68
66 80 83 78 63 56 53 45 42 31 30 50 86 87 90 97 97 93 88 85 80 73 66 65 65 67 68 73 72 70 69 75 82 84 88 87 87 86 87 88 90 84 72
61 59 77 80 76 69 59 54 44 34 34 36 72 85 94 92 94 90 94 93 89 84 80 79 78 81 79 79 78 76 80 85 84 84 83 87 86 86 86 88 88 89 82
56 60 74 73 80 81 77 70 61 51 47 55 72 92 98 98 98 99 97 96 95 93 89 89 93 97 90 89 83 82 84 89 86 81 80 86 84 85 85 85 86 88 87
92 80 75 81 78 76 70 72 69 63 66 66 90 96 95 96 97 96 95 98 98 96 91 90 93 89 99 94 85 87 82 82 80 78 68 71 85 87 79 82 86 90 92
97 97 96 88 87 83 87 86 83 79 78 77 94 99 98 98 98 98 97 97 98 98 96 92 93 95 98 93 89 91 88 80 75 75 64 64 68 70 74 75 81 87 90
98 97 98 97 98 96 96 95 82 99 99 88 91 97 98 98 98 98 98 98 98 98 97 96 96 96 96 96 90 87 83 75 71 68 64 60 57 58 60 72 79 86 89
54 61 61 76 79 82 84 86 86 94 92 92 92 90 92 93 92 92 92 94 94 94 93 91 90 93 92 89 84 77 70 63 62 59 53 58 58 61 62 68 81 88 92
32 37 43 40 44 49 49 51 46 41 41 40 38 40 43 46 50 55 55 54 52 57 59 61 58 59 62 63 59 55 53 51 52 54 50 58 60 64 68 70 72 83 88
30 28 25 29 26 27 33 31 32 32 34 34 35 33 32 27 28 27 27 29 32 35 34 35 36 38 37 35 32 28 27 28 28 30 35 43 55 58 64 70 77 78 80
21 20 22 20 19 19 15 15 14 15 16 16 15 15 15 14 14 17 17 18 19 18 20 24 24 24 22 21 20 20 19 18 17 16 18 24 24 31 47 64 72 77 86
16 13 14 10 9 10 10 8 7 7 6 6 6 6 6 6 6 7 9 8 9 10 11 12 14 16 17 17 16 15 14 14 14 14 17 19 16 17 20 28 47 66 78
12 11 11 11 11 10 9 9 8 8 7 7 7 6 6 6 6 6 6 6 6 7 6 6 7 8 9 10 12 13 15 16 18 17 16 17 16 17 16 15 18 29 50

GFSMA_prec_cthk_147.txt.gz
RH
31 46 61 65 66 66 68 65 55 46 39 34 34 34 36 37 35 37 42 45 49 58 60 52 56 50 47 43 44 52 59 68 74 80 85 87 92 88 80 80 73 58 49
12 19 37 57 64 70 73 75 70 56 48 40 36 34 35 36 36 36 42 46 51 56 61 56 59 56 51 46 45 48 56 62 69 75 83 85 92 94 92 89 84 73 61
10 10 14 33 48 61 72 77 79 73 57 50 40 37 36 36 36 36 39 45 51 55 58 53 50 61 60 56 55 53 50 51 57 65 69 78 86 86 85 79 70 72 72
11 10 9 12 26 45 59 72 79 81 71 60 48 39 37 37 37 37 38 42 49 51 50 51 48 45 48 51 58 57 56 48 43 50 58 67 77 74 73 65 61 61 62
12 12 11 9 10 19 45 60 75 78 75 66 57 48 39 37 36 38 37 40 46 49 46 47 47 44 46 43 51 55 58 59 50 47 53 58 60 63 64 65 58 52 49
14 14 13 12 10 10 15 37 57 71 83 82 65 59 47 41 41 38 37 38 41 46 48 44 46 47 45 43 43 44 52 56 57 54 53 56 55 54 60 59 58 56 52
18 17 17 15 14 12 10 15 39 63 84 91 89 77 63 48 42 41 40 39 40 42 48 46 45 44 47 44 48 42 46 49 50 53 59 59 59 58 55 56 64 62 62
23 23 22 19 17 15 13 13 15 34 61 89 98 88 82 62 48 41 42 41 39 42 44 47 44 44 47 43 46 45 43 43 50 53 52 59 61 59 60 63 63 65 64
29 29 28 27 23 22 18 16 17 19 32 58 78 91 95 80 48 44 40 43 41 41 44 46 46 47 51 48 50 50 50 47 48 52 55 55 57 61 62 59 63 61 60
34 33 32 30 29 28 24 19 17 19 25 37 57 78 91 93 70 53 46 42 43 41 40 43 44 44 48 50 52 54 56 56 57 58 58 62 63 63 62 57 58 59 61
41 41 40 36 33 31 30 27 20 19 22 32 46 64 92 96 86 63 57 49 46 41 40 44 45 46 49 54 55 55 57 59 62 64 65 65 72 70 71 72 62 61 61
46 47 47 46 41 34 34 30 26 22 21 36 32 49 66 80 91 81 66 61 50 46 44 44 45 48 48 52 56 57 58 61 63 64 65 69 69 72 73 76 78 73 69
55 56 56 54 51 48 45 36 31 24 23 34 29 35 51 60 83 81 85 76 66 55 50 48 47 50 51 53 54 57 59 63 67 67 69 73 77 81 82 81 82 82 80
54 49 50 47 51 56 64 54 39 32 27 37 44 43 46 61 71 77 94 90 79 67 57 52 53 54 54 55 58 60 62 65 71 73 73 76 80 82 83 82 84 87 89
50 48 50 54 55 55 67 74 56 47 39 42 50 61 61 70 79 84 90 94 91 82 77 64 65 63 64 66 72 74 71 69 70 72 72 77 82 84 85 84 87 91 90
59 66 56 58 61 86 73 79 85 58 47 41 40 42 65 65 64 64 81 94 96 95 90 80 73 68 65 64 67 74 75 74 75 75 73 77 80 81 85 84 86 90 91
72 76 69 67 89 88 93 97 78 73 71 61 60 52 50 52 52 62 75 84 98 97 94 92 89 84 83 79 76 79 77 78 79 76 75 80 83 83 82 82 84 86 89
75 73 72 65 80 95 94 94 79 75 70 62 58 68 75 67 67 71 78 88 90 96 96 97 99 95 93 92 90 91 90 90 92 86 82 83 86 84 81 78 77 83 85
80 83 85 83 85 97 96 98 96 84 75 72 74 75 79 83 79 75 86 91 98 96 98 98 98 98 97 96 94 93 94 96 96 96 91 90 87 84 83 75 69 81 81
51 57 77 85 90 93 91 93 93 87 85 84 98 94 94 94 87 94 98 99 99 98 98 98 98 99 98 98 97 94 95 95 95 96 92 88 86 85 79 75 68 68 65
35 41 39 48 60 66 64 68 78 86 88 88 89 91 90 92 91 87 88 91 96 98 97 97 97 97 97 97 96 96 95 93 86 85 83 80 78 77 75 72 71 65 63
26 25 29 27 33 38 46 46 47 51 52 46 48 44 45 50 55 57 59 61 57 52 54 59 61 67 65 58 60 68 75 79 77 69 68 68 65 64 64 65 62 62 70
22 22 21 29 22 27 26 26 30 30 29 31 32 31 32 31 30 30 30 29 32 38 41 45 46 45 43 45 47 42 41 45 51 55 48 39 36 34 37 43 50 58 64
22 19 15 14 17 20 19 21 19 20 20 19 19 18 17 12 11 12 16 18 18 18 19 20 24 26 29 34 35 33 30 30 29 33 34 28 23 20 18 18 21 27 43
17 16 18 15 12 10 12 15 12 12 11 12 8 7 7 6 6 6 6 5 6 6 11 15 13 11 15 16 14 16 22 23 23 23 32 28 20 16 12 12 13 14 19
15 15 14 13 12 11 11 10 9 9 8 8 8 8 8 8 7 7 6 6 6 6 5 6 6 6 6 7 8 10 10 12 14 11 17 17 18 16 18 13 10 8 9